Year,Month,Day,Hour,Minute,Value (Times are PST for barometer in hPa)
2015,12,09,00,00,994.83
2015,12,09,00,01,994.84
2015,12,09,00,02,994.82
2015,12,09,00,03,994.85
2015,12,09,00,04,994.85
2015,12,09,00,05,994.79
2015,12,09,00,06,994.79
2015,12,09,00,07,994.72
2015,12,09,00,08,994.75
2015,12,09,00,09,994.75
2015,12,09,00,10,994.72
2015,12,09,00,11,994.72
2015,12,09,00,12,994.75
2015,12,09,00,13,994.68
2015,12,09,00,14,994.68
2015,12,09,00,15,994.72
2015,12,09,00,16,994.68
2015,12,09,00,17,994.68
2015,12,09,00,18,994.68
2015,12,09,00,19,994.62
2015,12,09,00,20,994.47
2015,12,09,00,21,994.32
2015,12,09,00,22,994.38
2015,12,09,00,23,994.41
2015,12,09,00,24,994.41
2015,12,09,00,25,994.35
2015,12,09,00,26,994.35
2015,12,09,00,27,994.38
2015,12,09,00,28,994.45
2015,12,09,00,29,994.41
2015,12,09,00,30,994.52
2015,12,09,00,31,994.58
2015,12,09,00,32,994.71
2015,12,09,00,33,994.68
2015,12,09,00,34,994.72
2015,12,09,00,35,994.59
2015,12,09,00,36,994.58
2015,12,09,00,37,994.62
2015,12,09,00,38,994.55
2015,12,09,00,39,994.52
2015,12,09,00,40,994.58
2015,12,09,00,41,994.65
2015,12,09,00,42,994.58
2015,12,09,00,43,994.39
2015,12,09,00,44,994.09
2015,12,09,00,45,994.11
2015,12,09,00,46,994.02
2015,12,09,00,47,994.13
2015,12,09,00,48,994.62
2015,12,09,00,49,994.74
2015,12,09,00,50,994.56
2015,12,09,00,51,994.42
2015,12,09,00,52,994.25
2015,12,09,00,53,994.18
2015,12,09,00,54,994.02
2015,12,09,00,55,993.97
2015,12,09,00,56,994.29
2015,12,09,00,57,994.41
2015,12,09,00,58,994.19
2015,12,09,00,59,993.82
2015,12,09,01,00,993.71
2015,12,09,01,01,993.52
2015,12,09,01,02,993.73
2015,12,09,01,03,993.80
2015,12,09,01,04,993.71
2015,12,09,01,05,993.83
2015,12,09,01,06,993.71
2015,12,09,01,07,993.58
2015,12,09,01,08,993.63
2015,12,09,01,09,993.60
2015,12,09,01,10,993.86
2015,12,09,01,11,993.81
2015,12,09,01,12,993.58
2015,12,09,01,13,993.53
2015,12,09,01,14,993.62
2015,12,09,01,15,993.60
2015,12,09,01,16,993.57
2015,12,09,01,17,993.50
2015,12,09,01,18,993.47
2015,12,09,01,19,993.53
2015,12,09,01,20,993.62
2015,12,09,01,21,993.76
2015,12,09,01,22,993.86
2015,12,09,01,23,993.71
2015,12,09,01,24,993.74
2015,12,09,01,25,993.68
2015,12,09,01,26,993.82
2015,12,09,01,27,993.64
2015,12,09,01,28,993.58
2015,12,09,01,29,993.53
2015,12,09,01,30,993.53
2015,12,09,01,31,993.53
2015,12,09,01,32,993.53
2015,12,09,01,33,993.57
2015,12,09,01,34,993.60
2015,12,09,01,35,993.73
2015,12,09,01,36,993.70
2015,12,09,01,37,993.77
2015,12,09,01,38,993.74
2015,12,09,01,39,993.70
2015,12,09,01,40,993.93
2015,12,09,01,41,993.94
2015,12,09,01,42,993.87
2015,12,09,01,43,993.78
2015,12,09,01,44,993.84
2015,12,09,01,45,993.87
2015,12,09,01,46,993.65
2015,12,09,01,47,993.63
2015,12,09,01,48,993.70
2015,12,09,01,49,993.76
2015,12,09,01,50,993.74
2015,12,09,01,51,993.83
2015,12,09,01,52,993.75
2015,12,09,01,53,993.74
2015,12,09,01,54,993.74
2015,12,09,01,55,993.64
2015,12,09,01,56,993.63
2015,12,09,01,57,993.51
2015,12,09,01,58,993.53
2015,12,09,01,59,993.48
2015,12,09,02,00,993.50
2015,12,09,02,01,993.59
2015,12,09,02,02,993.69
2015,12,09,02,03,993.67
2015,12,09,02,04,993.82
2015,12,09,02,05,993.90
2015,12,09,02,06,993.96
2015,12,09,02,07,994.06
2015,12,09,02,08,994.11
2015,12,09,02,09,994.11
2015,12,09,02,10,994.11
2015,12,09,02,11,994.11
2015,12,09,02,12,994.14
2015,12,09,02,13,994.11
2015,12,09,02,14,994.26
2015,12,09,02,15,994.28
2015,12,09,02,16,994.31
2015,12,09,02,17,994.22
2015,12,09,02,18,994.21
2015,12,09,02,19,994.24
2015,12,09,02,20,994.24
2015,12,09,02,21,994.21
2015,12,09,02,22,994.27
2015,12,09,02,23,994.28
2015,12,09,02,24,994.28
2015,12,09,02,25,994.31
2015,12,09,02,26,994.38
2015,12,09,02,27,994.35
2015,12,09,02,28,994.31
2015,12,09,02,29,994.31
2015,12,09,02,30,994.31
2015,12,09,02,31,994.28
2015,12,09,02,32,994.24
2015,12,09,02,33,994.21
2015,12,09,02,34,994.30
2015,12,09,02,35,994.38
2015,12,09,02,36,994.38
2015,12,09,02,37,994.29
2015,12,09,02,38,994.31
2015,12,09,02,39,994.22
2015,12,09,02,40,994.34
2015,12,09,02,41,994.44
2015,12,09,02,42,994.45
2015,12,09,02,43,994.36
2015,12,09,02,44,994.29
2015,12,09,02,45,994.43
2015,12,09,02,46,994.51
2015,12,09,02,47,994.42
2015,12,09,02,48,994.45
2015,12,09,02,49,994.48
2015,12,09,02,50,994.52
2015,12,09,02,51,994.39
2015,12,09,02,52,994.54
2015,12,09,02,53,994.49
2015,12,09,02,54,994.57
2015,12,09,02,55,994.53
2015,12,09,02,56,994.61
2015,12,09,02,57,994.47
2015,12,09,02,58,994.57
2015,12,09,02,59,994.71
2015,12,09,03,00,994.66
2015,12,09,03,01,994.71
2015,12,09,03,02,994.79
2015,12,09,03,03,994.69
2015,12,09,03,04,994.81
2015,12,09,03,05,994.75
2015,12,09,03,06,994.84
2015,12,09,03,07,994.82
2015,12,09,03,08,994.85
2015,12,09,03,09,994.91
2015,12,09,03,10,994.92
2015,12,09,03,11,994.92
2015,12,09,03,12,995.02
2015,12,09,03,13,995.06
2015,12,09,03,14,995.09
2015,12,09,03,15,995.03
2015,12,09,03,16,995.15
2015,12,09,03,17,995.09
2015,12,09,03,18,994.94
2015,12,09,03,19,995.05
2015,12,09,03,20,995.11
2015,12,09,03,21,994.97
2015,12,09,03,22,994.99
2015,12,09,03,23,995.02
2015,12,09,03,24,995.15
2015,12,09,03,25,995.12
2015,12,09,03,26,995.06
2015,12,09,03,27,995.06
2015,12,09,03,28,995.06
2015,12,09,03,29,994.91
2015,12,09,03,30,994.98
2015,12,09,03,31,995.05
2015,12,09,03,32,995.06
2015,12,09,03,33,995.09
2015,12,09,03,34,995.22
2015,12,09,03,35,995.10
2015,12,09,03,36,995.15
2015,12,09,03,37,995.19
2015,12,09,03,38,995.25
2015,12,09,03,39,995.26
2015,12,09,03,40,995.23
2015,12,09,03,41,995.41
2015,12,09,03,42,995.43
2015,12,09,03,43,995.37
2015,12,09,03,44,995.51
2015,12,09,03,45,995.56
2015,12,09,03,46,995.56
2015,12,09,03,47,995.60
2015,12,09,03,48,995.72
2015,12,09,03,49,995.64
2015,12,09,03,50,995.63
2015,12,09,03,51,995.67
2015,12,09,03,52,995.70
2015,12,09,03,53,995.76
2015,12,09,03,54,995.68
2015,12,09,03,55,995.76
2015,12,09,03,56,995.80
2015,12,09,03,57,995.80
2015,12,09,03,58,995.80
2015,12,09,03,59,995.71
2015,12,09,04,00,995.85
2015,12,09,04,01,995.81
2015,12,09,04,02,995.77
2015,12,09,04,03,995.64
2015,12,09,04,04,995.78
2015,12,09,04,05,995.68
2015,12,09,04,06,995.72
2015,12,09,04,07,995.83
2015,12,09,04,08,995.93
2015,12,09,04,09,995.85
2015,12,09,04,10,995.78
2015,12,09,04,11,995.89
2015,12,09,04,12,995.85
2015,12,09,04,13,995.96
2015,12,09,04,14,995.85
2015,12,09,04,15,995.96
2015,12,09,04,16,995.88
2015,12,09,04,17,995.96
2015,12,09,04,18,996.06
2015,12,09,04,19,995.92
2015,12,09,04,20,996.00
2015,12,09,04,21,996.01
2015,12,09,04,22,996.10
2015,12,09,04,23,996.07
2015,12,09,04,24,996.07
2015,12,09,04,25,996.11
2015,12,09,04,26,996.11
2015,12,09,04,27,996.20
2015,12,09,04,28,996.21
2015,12,09,04,29,996.17
2015,12,09,04,30,996.23
2015,12,09,04,31,996.30
2015,12,09,04,32,996.31
2015,12,09,04,33,996.25
2015,12,09,04,34,996.28
2015,12,09,04,35,996.33
2015,12,09,04,36,996.31
2015,12,09,04,37,996.34
2015,12,09,04,38,996.34
2015,12,09,04,39,996.29
2015,12,09,04,40,996.28
2015,12,09,04,41,996.33
2015,12,09,04,42,996.25
2015,12,09,04,43,996.18
2015,12,09,04,44,996.21
2015,12,09,04,45,996.36
2015,12,09,04,46,996.26
2015,12,09,04,47,996.30
2015,12,09,04,48,996.25
2015,12,09,04,49,996.33
2015,12,09,04,50,996.40
2015,12,09,04,51,996.45
2015,12,09,04,52,996.42
2015,12,09,04,53,996.56
2015,12,09,04,54,996.49
2015,12,09,04,55,996.45
2015,12,09,04,56,996.48
2015,12,09,04,57,996.57
2015,12,09,04,58,996.49
2015,12,09,04,59,996.57
2015,12,09,05,00,996.52
2015,12,09,05,01,996.46
2015,12,09,05,02,996.50
2015,12,09,05,03,996.46
2015,12,09,05,04,996.45
2015,12,09,05,05,996.39
2015,12,09,05,06,996.47
2015,12,09,05,07,996.70
2015,12,09,05,08,996.96
2015,12,09,05,09,997.11
2015,12,09,05,10,997.03
2015,12,09,05,11,997.17
2015,12,09,05,12,997.06
2015,12,09,05,13,997.09
2015,12,09,05,14,997.24
2015,12,09,05,15,997.22
2015,12,09,05,16,997.22
2015,12,09,05,17,997.22
2015,12,09,05,18,997.22
2015,12,09,05,19,997.19
2015,12,09,05,20,997.19
2015,12,09,05,21,997.10
2015,12,09,05,22,997.18
2015,12,09,05,23,997.10
2015,12,09,05,24,997.12
2015,12,09,05,25,997.09
2015,12,09,05,26,997.09
2015,12,09,05,27,997.01
2015,12,09,05,28,997.14
2015,12,09,05,29,997.04
2015,12,09,05,30,996.95
2015,12,09,05,31,997.04
2015,12,09,05,32,997.09
2015,12,09,05,33,997.03
2015,12,09,05,34,997.08
2015,12,09,05,35,997.09
2015,12,09,05,36,997.05
2015,12,09,05,37,997.08
2015,12,09,05,38,997.05
2015,12,09,05,39,997.02
2015,12,09,05,40,996.99
2015,12,09,05,41,996.99
2015,12,09,05,42,996.96
2015,12,09,05,43,996.95
2015,12,09,05,44,996.90
2015,12,09,05,45,996.89
2015,12,09,05,46,996.83
2015,12,09,05,47,996.97
2015,12,09,05,48,997.08
2015,12,09,05,49,997.09
2015,12,09,05,50,997.15
2015,12,09,05,51,997.12
2015,12,09,05,52,997.18
2015,12,09,05,53,997.28
2015,12,09,05,54,997.23
2015,12,09,05,55,997.16
2015,12,09,05,56,997.24
2015,12,09,05,57,997.38
2015,12,09,05,58,997.49
2015,12,09,05,59,997.53
2015,12,09,06,00,997.55
2015,12,09,06,01,997.60
2015,12,09,06,02,997.63
2015,12,09,06,03,997.69
2015,12,09,06,04,997.67
2015,12,09,06,05,997.78
2015,12,09,06,06,997.80
2015,12,09,06,07,997.83
2015,12,09,06,08,997.98
2015,12,09,06,09,997.95
2015,12,09,06,10,997.99
2015,12,09,06,11,998.04
2015,12,09,06,12,998.13
2015,12,09,06,13,998.14
2015,12,09,06,14,998.08
2015,12,09,06,15,998.20
2015,12,09,06,16,998.26
2015,12,09,06,17,998.37
2015,12,09,06,18,998.28
2015,12,09,06,19,998.33
2015,12,09,06,20,998.31
2015,12,09,06,21,998.34
2015,12,09,06,22,998.28
2015,12,09,06,23,998.12
2015,12,09,06,24,998.23
2015,12,09,06,25,998.27
2015,12,09,06,26,998.22
2015,12,09,06,27,998.24
2015,12,09,06,28,998.27
2015,12,09,06,29,998.36
2015,12,09,06,30,998.32
2015,12,09,06,31,998.34
2015,12,09,06,32,998.40
2015,12,09,06,33,998.41
2015,12,09,06,34,998.43
2015,12,09,06,35,998.41
2015,12,09,06,36,998.44
2015,12,09,06,37,998.41
2015,12,09,06,38,998.47
2015,12,09,06,39,998.44
2015,12,09,06,40,998.35
2015,12,09,06,41,998.37
2015,12,09,06,42,998.41
2015,12,09,06,43,998.35
2015,12,09,06,44,998.43
2015,12,09,06,45,998.44
2015,12,09,06,46,998.35
2015,12,09,06,47,998.34
2015,12,09,06,48,998.32
2015,12,09,06,49,998.34
2015,12,09,06,50,998.31
2015,12,09,06,51,998.37
2015,12,09,06,52,998.41
2015,12,09,06,53,998.41
2015,12,09,06,54,998.39
2015,12,09,06,55,998.35
2015,12,09,06,56,998.40
2015,12,09,06,57,998.39
2015,12,09,06,58,998.29
2015,12,09,06,59,998.41
2015,12,09,07,00,998.44
2015,12,09,07,01,998.67
2015,12,09,07,02,998.93
2015,12,09,07,03,998.92
2015,12,09,07,04,999.09
2015,12,09,07,05,999.15
2015,12,09,07,06,999.19
2015,12,09,07,07,999.37
2015,12,09,07,08,999.39
2015,12,09,07,09,999.43
2015,12,09,07,10,999.46
2015,12,09,07,11,999.55
2015,12,09,07,12,999.50
2015,12,09,07,13,999.49
2015,12,09,07,14,999.58
2015,12,09,07,15,999.68
2015,12,09,07,16,999.70
2015,12,09,07,17,999.66
2015,12,09,07,18,999.69
2015,12,09,07,19,999.75
2015,12,09,07,20,999.85
2015,12,09,07,21,999.81
2015,12,09,07,22,999.91
2015,12,09,07,23,999.90
2015,12,09,07,24,999.98
2015,12,09,07,25,1000.00
2015,12,09,07,26,1000.03
2015,12,09,07,27,1000.03
2015,12,09,07,28,999.95
2015,12,09,07,29,999.93
2015,12,09,07,30,999.97
2015,12,09,07,31,1000.00
2015,12,09,07,32,1000.00
2015,12,09,07,33,1000.06
2015,12,09,07,34,1000.01
2015,12,09,07,35,999.97
2015,12,09,07,36,1000.00
2015,12,09,07,37,999.97
2015,12,09,07,38,999.97
2015,12,09,07,39,1000.00
2015,12,09,07,40,1000.03
2015,12,09,07,41,1000.03
2015,12,09,07,42,1000.00
2015,12,09,07,43,1000.06
2015,12,09,07,44,1000.07
2015,12,09,07,45,1000.16
2015,12,09,07,46,1000.23
2015,12,09,07,47,1000.27
2015,12,09,07,48,1000.27
2015,12,09,07,49,1000.24
2015,12,09,07,50,1000.30
2015,12,09,07,51,1000.31
2015,12,09,07,52,1000.36
2015,12,09,07,53,1000.43
2015,12,09,07,54,1000.58
2015,12,09,07,55,1000.64
2015,12,09,07,56,1000.67
2015,12,09,07,57,1000.77
2015,12,09,07,58,1000.91
2015,12,09,07,59,1000.95
2015,12,09,08,00,1001.04
2015,12,09,08,01,1001.02
2015,12,09,08,02,1001.02
2015,12,09,08,03,1001.07
2015,12,09,08,04,1001.05
2015,12,09,08,05,1001.05
2015,12,09,08,06,1001.02
2015,12,09,08,07,1001.07
2015,12,09,08,08,1001.18
2015,12,09,08,09,1001.22
2015,12,09,08,10,1001.09
2015,12,09,08,11,1001.14
2015,12,09,08,12,1001.19
2015,12,09,08,13,1001.19
2015,12,09,08,14,1001.22
2015,12,09,08,15,1001.19
2015,12,09,08,16,1001.24
2015,12,09,08,17,1001.29
2015,12,09,08,18,1001.29
2015,12,09,08,19,1001.32
2015,12,09,08,20,1001.36
2015,12,09,08,21,1001.45
2015,12,09,08,22,1001.51
2015,12,09,08,23,1001.52
2015,12,09,08,24,1001.52
2015,12,09,08,25,1001.52
2015,12,09,08,26,1001.56
2015,12,09,08,27,1001.52
2015,12,09,08,28,1001.62
2015,12,09,08,29,1001.57
2015,12,09,08,30,1001.59
2015,12,09,08,31,1001.56
2015,12,09,08,32,1001.65
2015,12,09,08,33,1001.63
2015,12,09,08,34,1001.72
2015,12,09,08,35,1001.67
2015,12,09,08,36,1001.81
2015,12,09,08,37,1001.96
2015,12,09,08,38,1002.06
2015,12,09,08,39,1002.12
2015,12,09,08,40,1002.26
2015,12,09,08,41,1002.18
2015,12,09,08,42,1002.23
2015,12,09,08,43,1002.39
2015,12,09,08,44,1002.37
2015,12,09,08,45,1002.43
2015,12,09,08,46,1002.47
2015,12,09,08,47,1002.51
2015,12,09,08,48,1002.54
2015,12,09,08,49,1002.57
2015,12,09,08,50,1002.61
2015,12,09,08,51,1002.61
2015,12,09,08,52,1002.79
2015,12,09,08,53,1002.81
2015,12,09,08,54,1002.75
2015,12,09,08,55,1002.74
2015,12,09,08,56,1002.74
2015,12,09,08,57,1002.78
2015,12,09,08,58,1002.87
2015,12,09,08,59,1002.91
2015,12,09,09,00,1003.00
2015,12,09,09,01,1003.01
2015,12,09,09,02,1002.98
2015,12,09,09,03,1002.95
2015,12,09,09,04,1002.98
2015,12,09,09,05,1003.01
2015,12,09,09,06,1003.04
2015,12,09,09,07,1003.11
2015,12,09,09,08,1003.12
2015,12,09,09,09,1003.21
2015,12,09,09,10,1003.22
2015,12,09,09,11,1003.18
2015,12,09,09,12,1003.18
2015,12,09,09,13,1003.18
2015,12,09,09,14,1003.13
2015,12,09,09,15,1003.21
2015,12,09,09,16,1003.13
2015,12,09,09,17,1003.17
2015,12,09,09,18,1003.24
2015,12,09,09,19,1003.22
2015,12,09,09,20,1003.25
2015,12,09,09,21,1003.22
2015,12,09,09,22,1003.22
2015,12,09,09,23,1003.28
2015,12,09,09,24,1003.29
2015,12,09,09,25,1003.34
2015,12,09,09,26,1003.41
2015,12,09,09,27,1003.48
2015,12,09,09,28,1003.46
2015,12,09,09,29,1003.54
2015,12,09,09,30,1003.52
2015,12,09,09,31,1003.52
2015,12,09,09,32,1003.58
2015,12,09,09,33,1003.59
2015,12,09,09,34,1003.59
2015,12,09,09,35,1003.56
2015,12,09,09,36,1003.50
2015,12,09,09,37,1003.52
2015,12,09,09,38,1003.56
2015,12,09,09,39,1003.56
2015,12,09,09,40,1003.59
2015,12,09,09,41,1003.56
2015,12,09,09,42,1003.65
2015,12,09,09,43,1003.66
2015,12,09,09,44,1003.62
2015,12,09,09,45,1003.75
2015,12,09,09,46,1003.76
2015,12,09,09,47,1003.73
2015,12,09,09,48,1003.73
2015,12,09,09,49,1003.78
2015,12,09,09,50,1003.85
2015,12,09,09,51,1003.83
2015,12,09,09,52,1003.86
2015,12,09,09,53,1003.92
2015,12,09,09,54,1003.96
2015,12,09,09,55,1003.93
2015,12,09,09,56,1003.96
2015,12,09,09,57,1003.96
2015,12,09,09,58,1003.91
2015,12,09,09,59,1003.93
2015,12,09,10,00,1003.93
2015,12,09,10,01,1003.90
2015,12,09,10,02,1003.87
2015,12,09,10,03,1003.83
2015,12,09,10,04,1003.83
2015,12,09,10,05,1003.79
2015,12,09,10,06,1003.83
2015,12,09,10,07,1003.95
2015,12,09,10,08,1004.02
2015,12,09,10,09,1003.95
2015,12,09,10,10,1003.96
2015,12,09,10,11,1004.00
2015,12,09,10,12,1004.03
2015,12,09,10,13,1004.06
2015,12,09,10,14,1004.28
2015,12,09,10,15,1004.34
2015,12,09,10,16,1004.34
2015,12,09,10,17,1004.39
2015,12,09,10,18,1004.40
2015,12,09,10,19,1004.44
2015,12,09,10,20,1004.53
2015,12,09,10,21,1004.62
2015,12,09,10,22,1004.70
2015,12,09,10,23,1004.86
2015,12,09,10,24,1004.91
2015,12,09,10,25,1004.95
2015,12,09,10,26,1004.92
2015,12,09,10,27,1004.91
2015,12,09,10,28,1004.85
2015,12,09,10,29,1004.90
2015,12,09,10,30,1004.97
2015,12,09,10,31,1005.01
2015,12,09,10,32,1005.04
2015,12,09,10,33,1005.02
2015,12,09,10,34,1005.10
2015,12,09,10,35,1005.08
2015,12,09,10,36,1005.14
2015,12,09,10,37,1005.15
2015,12,09,10,38,1005.11
2015,12,09,10,39,1005.11
2015,12,09,10,40,1005.14
2015,12,09,10,41,1005.18
2015,12,09,10,42,1005.24
2015,12,09,10,43,1005.22
2015,12,09,10,44,1005.27
2015,12,09,10,45,1005.32
2015,12,09,10,46,1005.28
2015,12,09,10,47,1005.31
2015,12,09,10,48,1005.28
2015,12,09,10,49,1005.34
2015,12,09,10,50,1005.47
2015,12,09,10,51,1005.49
2015,12,09,10,52,1005.52
2015,12,09,10,53,1005.58
2015,12,09,10,54,1005.59
2015,12,09,10,55,1005.62
2015,12,09,10,56,1005.66
2015,12,09,10,57,1005.69
2015,12,09,10,58,1005.72
2015,12,09,10,59,1005.72
2015,12,09,11,00,1005.69
2015,12,09,11,01,1005.69
2015,12,09,11,02,1005.72
2015,12,09,11,03,1005.69
2015,12,09,11,04,1005.72
2015,12,09,11,05,1005.76
2015,12,09,11,06,1005.72
2015,12,09,11,07,1005.85
2015,12,09,11,08,1005.89
2015,12,09,11,09,1005.93
2015,12,09,11,10,1005.87
2015,12,09,11,11,1005.89
2015,12,09,11,12,1005.95
2015,12,09,11,13,1005.93
2015,12,09,11,14,1005.96
2015,12,09,11,15,1006.02
2015,12,09,11,16,1006.06
2015,12,09,11,17,1006.12
2015,12,09,11,18,1006.16
2015,12,09,11,19,1006.16
2015,12,09,11,20,1006.13
2015,12,09,11,21,1006.19
2015,12,09,11,22,1006.16
2015,12,09,11,23,1006.19
2015,12,09,11,24,1006.23
2015,12,09,11,25,1006.23
2015,12,09,11,26,1006.23
2015,12,09,11,27,1006.27
2015,12,09,11,28,1006.27
2015,12,09,11,29,1006.24
2015,12,09,11,30,1006.32
2015,12,09,11,31,1006.36
2015,12,09,11,32,1006.37
2015,12,09,11,33,1006.43
2015,12,09,11,34,1006.40
2015,12,09,11,35,1006.44
2015,12,09,11,36,1006.47
2015,12,09,11,37,1006.50
2015,12,09,11,38,1006.56
2015,12,09,11,39,1006.63
2015,12,09,11,40,1006.64
2015,12,09,11,41,1006.70
2015,12,09,11,42,1006.68
2015,12,09,11,43,1006.67
2015,12,09,11,44,1006.61
2015,12,09,11,45,1006.66
2015,12,09,11,46,1006.71
2015,12,09,11,47,1006.71
2015,12,09,11,48,1006.67
2015,12,09,11,49,1006.64
2015,12,09,11,50,1006.67
2015,12,09,11,51,1006.70
2015,12,09,11,52,1006.74
2015,12,09,11,53,1006.74
2015,12,09,11,54,1006.77
2015,12,09,11,55,1006.81
2015,12,09,11,56,1006.81
2015,12,09,11,57,1006.81
2015,12,09,11,58,1006.81
2015,12,09,11,59,1006.84
2015,12,09,12,00,1006.90
2015,12,09,12,01,1006.91
2015,12,09,12,02,1006.94
2015,12,09,12,03,1006.97
2015,12,09,12,04,1007.01
2015,12,09,12,05,1007.04
2015,12,09,12,06,1006.99
2015,12,09,12,07,1006.98
2015,12,09,12,08,1006.94
2015,12,09,12,09,1006.98
2015,12,09,12,10,1007.03
2015,12,09,12,11,1007.01
2015,12,09,12,12,1006.98
2015,12,09,12,13,1007.03
2015,12,09,12,14,1007.10
2015,12,09,12,15,1007.17
2015,12,09,12,16,1007.18
2015,12,09,12,17,1007.18
2015,12,09,12,18,1007.21
2015,12,09,12,19,1007.16
2015,12,09,12,20,1007.18
2015,12,09,12,21,1007.18
2015,12,09,12,22,1007.21
2015,12,09,12,23,1007.25
2015,12,09,12,24,1007.21
2015,12,09,12,25,1007.24
2015,12,09,12,26,1007.34
2015,12,09,12,27,1007.29
2015,12,09,12,28,1007.34
2015,12,09,12,29,1007.32
2015,12,09,12,30,1007.35
2015,12,09,12,31,1007.32
2015,12,09,12,32,1007.32
2015,12,09,12,33,1007.41
2015,12,09,12,34,1007.36
2015,12,09,12,35,1007.38
2015,12,09,12,36,1007.38
2015,12,09,12,37,1007.42
2015,12,09,12,38,1007.45
2015,12,09,12,39,1007.45
2015,12,09,12,40,1007.45
2015,12,09,12,41,1007.51
2015,12,09,12,42,1007.52
2015,12,09,12,43,1007.48
2015,12,09,12,44,1007.48
2015,12,09,12,45,1007.54
2015,12,09,12,46,1007.59
2015,12,09,12,47,1007.62
2015,12,09,12,48,1007.65
2015,12,09,12,49,1007.65
2015,12,09,12,50,1007.62
2015,12,09,12,51,1007.65
2015,12,09,12,52,1007.62
2015,12,09,12,53,1007.68
2015,12,09,12,54,1007.63
2015,12,09,12,55,1007.68
2015,12,09,12,56,1007.75
2015,12,09,12,57,1007.76
2015,12,09,12,58,1007.76
2015,12,09,12,59,1007.81
2015,12,09,13,00,1007.82
2015,12,09,13,01,1007.88
2015,12,09,13,02,1007.86
2015,12,09,13,03,1007.89
2015,12,09,13,04,1007.95
2015,12,09,13,05,1007.96
2015,12,09,13,06,1007.93
2015,12,09,13,07,1007.96
2015,12,09,13,08,1007.96
2015,12,09,13,09,1007.99
2015,12,09,13,10,1007.99
2015,12,09,13,11,1007.99
2015,12,09,13,12,1007.99
2015,12,09,13,13,1007.99
2015,12,09,13,14,1008.05
2015,12,09,13,15,1008.03
2015,12,09,13,16,1008.06
2015,12,09,13,17,1008.09
2015,12,09,13,18,1008.13
2015,12,09,13,19,1008.16
2015,12,09,13,20,1008.13
2015,12,09,13,21,1008.16
2015,12,09,13,22,1008.16
2015,12,09,13,23,1008.13
2015,12,09,13,24,1008.13
2015,12,09,13,25,1008.13
2015,12,09,13,26,1008.16
2015,12,09,13,27,1008.20
2015,12,09,13,28,1008.16
2015,12,09,13,29,1008.19
2015,12,09,13,30,1008.20
2015,12,09,13,31,1008.16
2015,12,09,13,32,1008.20
2015,12,09,13,33,1008.25
2015,12,09,13,34,1008.21
2015,12,09,13,35,1008.23
2015,12,09,13,36,1008.23
2015,12,09,13,37,1008.26
2015,12,09,13,38,1008.21
2015,12,09,13,39,1008.20
2015,12,09,13,40,1008.23
2015,12,09,13,41,1008.23
2015,12,09,13,42,1008.23
2015,12,09,13,43,1008.20
2015,12,09,13,44,1008.20
2015,12,09,13,45,1008.20
2015,12,09,13,46,1008.20
2015,12,09,13,47,1008.20
2015,12,09,13,48,1008.17
2015,12,09,13,49,1008.10
2015,12,09,13,50,1008.09
2015,12,09,13,51,1008.06
2015,12,09,13,52,1008.03
2015,12,09,13,53,1008.05
2015,12,09,13,54,1008.06
2015,12,09,13,55,1007.97
2015,12,09,13,56,1007.93
2015,12,09,13,57,1007.98
2015,12,09,13,58,1007.96
2015,12,09,13,59,1007.94
2015,12,09,14,00,1007.93
2015,12,09,14,01,1007.90
2015,12,09,14,02,1007.93
2015,12,09,14,03,1007.87
2015,12,09,14,04,1007.92
2015,12,09,14,05,1007.87
2015,12,09,14,06,1007.86
2015,12,09,14,07,1007.89
2015,12,09,14,08,1007.89
2015,12,09,14,09,1007.86
2015,12,09,14,10,1007.89
2015,12,09,14,11,1007.89
2015,12,09,14,12,1007.95
2015,12,09,14,13,1007.93
2015,12,09,14,14,1007.93
2015,12,09,14,15,1007.96
2015,12,09,14,16,1007.96
2015,12,09,14,17,1007.99
2015,12,09,14,18,1007.99
2015,12,09,14,19,1007.96
2015,12,09,14,20,1008.02
2015,12,09,14,21,1008.06
2015,12,09,14,22,1008.03
2015,12,09,14,23,1008.06
2015,12,09,14,24,1008.03
2015,12,09,14,25,1008.06
2015,12,09,14,26,1008.03
2015,12,09,14,27,1008.06
2015,12,09,14,28,1008.06
2015,12,09,14,29,1008.03
2015,12,09,14,30,1008.03
2015,12,09,14,31,1008.03
2015,12,09,14,32,1008.03
2015,12,09,14,33,1008.06
2015,12,09,14,34,1008.06
2015,12,09,14,35,1008.06
2015,12,09,14,36,1008.06
2015,12,09,14,37,1008.12
2015,12,09,14,38,1008.13
2015,12,09,14,39,1008.16
2015,12,09,14,40,1008.20
2015,12,09,14,41,1008.23
2015,12,09,14,42,1008.23
2015,12,09,14,43,1008.26
2015,12,09,14,44,1008.29
2015,12,09,14,45,1008.36
2015,12,09,14,46,1008.37
2015,12,09,14,47,1008.34
2015,12,09,14,48,1008.33
2015,12,09,14,49,1008.36
2015,12,09,14,50,1008.40
2015,12,09,14,51,1008.40
2015,12,09,14,52,1008.40
2015,12,09,14,53,1008.40
2015,12,09,14,54,1008.46
2015,12,09,14,55,1008.44
2015,12,09,14,56,1008.43
2015,12,09,14,57,1008.40
2015,12,09,14,58,1008.40
2015,12,09,14,59,1008.46
2015,12,09,15,00,1008.47
2015,12,09,15,01,1008.47
2015,12,09,15,02,1008.50
2015,12,09,15,03,1008.47
2015,12,09,15,04,1008.50
2015,12,09,15,05,1008.50
2015,12,09,15,06,1008.53
2015,12,09,15,07,1008.50
2015,12,09,15,08,1008.50
2015,12,09,15,09,1008.53
2015,12,09,15,10,1008.59
2015,12,09,15,11,1008.57
2015,12,09,15,12,1008.63
2015,12,09,15,13,1008.55
2015,12,09,15,14,1008.53
2015,12,09,15,15,1008.50
2015,12,09,15,16,1008.50
2015,12,09,15,17,1008.44
2015,12,09,15,18,1008.43
2015,12,09,15,19,1008.43
2015,12,09,15,20,1008.43
2015,12,09,15,21,1008.43
2015,12,09,15,22,1008.43
2015,12,09,15,23,1008.40
2015,12,09,15,24,1008.40
2015,12,09,15,25,1008.40
2015,12,09,15,26,1008.40
2015,12,09,15,27,1008.34
2015,12,09,15,28,1008.33
2015,12,09,15,29,1008.30
2015,12,09,15,30,1008.30
2015,12,09,15,31,1008.36
2015,12,09,15,32,1008.31
2015,12,09,15,33,1008.24
2015,12,09,15,34,1008.23
2015,12,09,15,35,1008.20
2015,12,09,15,36,1008.29
2015,12,09,15,37,1008.27
2015,12,09,15,38,1008.26
2015,12,09,15,39,1008.23
2015,12,09,15,40,1008.26
2015,12,09,15,41,1008.26
2015,12,09,15,42,1008.26
2015,12,09,15,43,1008.23
2015,12,09,15,44,1008.23
2015,12,09,15,45,1008.23
2015,12,09,15,46,1008.17
2015,12,09,15,47,1008.19
2015,12,09,15,48,1008.17
2015,12,09,15,49,1008.20
2015,12,09,15,50,1008.17
2015,12,09,15,51,1008.19
2015,12,09,15,52,1008.17
2015,12,09,15,53,1008.19
2015,12,09,15,54,1008.14
2015,12,09,15,55,1008.22
2015,12,09,15,56,1008.26
2015,12,09,15,57,1008.32
2015,12,09,15,58,1008.33
2015,12,09,15,59,1008.36
2015,12,09,16,00,1008.34
2015,12,09,16,01,1008.33
2015,12,09,16,02,1008.33
2015,12,09,16,03,1008.30
2015,12,09,16,04,1008.32
2015,12,09,16,05,1008.36
2015,12,09,16,06,1008.37
2015,12,09,16,07,1008.37
2015,12,09,16,08,1008.37
2015,12,09,16,09,1008.37
2015,12,09,16,10,1008.37
2015,12,09,16,11,1008.42
2015,12,09,16,12,1008.40
2015,12,09,16,13,1008.37
2015,12,09,16,14,1008.37